Time,TemperatureF,DewpointF,PressureIn,WindDirection,WindDirectionDegrees,WindSpeedMPH,WindSpeedGustMPH,Humidity,HourlyPrecipIn,Conditions,Clouds,dailyrainin,SoftwareType,DateUTC
2013-06-17 00:11:00,83.3,73.0,30.08,SE,131,0.0,8.0,71,0.00,,,0.00,weatherlink.com 1.10,2013-06-17 04:11:00,
2013-06-17 00:26:00,83.3,74.0,30.08,SE,131,9.0,12.0,73,0.00,,,0.00,weatherlink.com 1.10,2013-06-17 04:26:00,
2013-06-17 00:41:00,83.1,74.0,30.08,SE,129,0.0,9.0,73,0.00,,,0.00,weatherlink.com 1.10,2013-06-17 04:41:00,
2013-06-17 00:56:00,83.1,74.0,30.07,SSE,151,2.0,5.0,75,0.00,,,0.00,weatherlink.com 1.10,2013-06-17 04:56:00,
2013-06-17 01:11:00,82.9,75.0,30.07,SE,143,0.0,6.0,76,0.00,,,0.00,weatherlink.com 1.10,2013-06-17 05:11:00,
2013-06-17 01:26:00,82.9,75.0,30.07,SE,140,3.0,9.0,76,0.00,,,0.00,weatherlink.com 1.10,2013-06-17 05:26:00,
2013-06-17 01:41:00,82.9,75.0,30.06,SSE,154,3.0,9.0,77,0.00,,,0.00,weatherlink.com 1.10,2013-06-17 05:41:00,
2013-06-17 01:56:00,82.7,74.0,30.05,SSE,156,0.0,7.0,76,0.00,,,0.00,weatherlink.com 1.10,2013-06-17 05:56:00,
2013-06-17 02:11:00,82.7,75.0,30.05,SSE,162,0.0,6.0,77,0.00,,,0.00,weatherlink.com 1.10,2013-06-17 06:11:00,
2013-06-17 02:26:00,82.5,75.0,30.04,SE,144,0.0,8.0,77,0.00,,,0.00,weatherlink.com 1.10,2013-06-17 06:26:00,
2013-06-17 02:41:00,82.5,74.0,30.04,SE,125,8.0,8.0,75,0.00,,,0.00,weatherlink.com 1.10,2013-06-17 06:41:00,
2013-06-17 02:56:00,82.5,74.0,30.04,SSE,154,0.0,5.0,75,0.00,,,0.00,weatherlink.com 1.10,2013-06-17 06:56:00,
2013-06-17 03:11:00,82.3,74.0,30.04,SSE,155,0.0,4.0,76,0.00,,,0.00,weatherlink.com 1.10,2013-06-17 07:11:00,
2013-06-17 03:26:00,82.1,74.0,30.03,SSE,155,0.0,1.0,76,0.00,,,0.00,weatherlink.com 1.10,2013-06-17 07:26:00,
2013-06-17 03:41:00,81.9,74.0,30.03,SSE,155,0.0,1.0,76,0.00,,,0.00,weatherlink.com 1.10,2013-06-17 07:41:00,
2013-06-17 03:56:00,81.7,74.0,30.02,SSE,155,0.0,0.0,77,0.00,,,0.00,weatherlink.com 1.10,2013-06-17 07:56:00,
2013-06-17 04:11:00,81.3,73.0,30.02,SSE,155,0.0,0.0,77,0.00,,,0.00,weatherlink.com 1.10,2013-06-17 08:11:00,
2013-06-17 04:26:00,81.3,73.0,30.02,SSE,155,0.0,0.0,77,0.00,,,0.00,weatherlink.com 1.10,2013-06-17 08:26:00,
2013-06-17 04:41:00,81.0,74.0,30.02,SSE,155,0.0,0.0,78,0.00,,,0.00,weatherlink.com 1.10,2013-06-17 08:41:00,
2013-06-17 04:56:00,80.8,73.0,30.02,SSE,155,0.0,1.0,78,0.00,,,0.00,weatherlink.com 1.10,2013-06-17 08:56:00,
2013-06-17 05:11:00,80.8,74.0,30.01,SSE,155,2.0,3.0,79,0.00,,,0.00,weatherlink.com 1.10,2013-06-17 09:11:00,
2013-06-17 05:26:00,80.6,74.0,30.01,SSE,155,0.0,0.0,80,0.00,,,0.00,weatherlink.com 1.10,2013-06-17 09:26:00,
2013-06-17 05:41:00,80.6,74.0,30.02,SSE,155,0.0,0.0,80,0.00,,,0.00,weatherlink.com 1.10,2013-06-17 09:41:00,
2013-06-17 05:56:00,80.6,74.0,30.02,SSE,155,0.0,3.0,81,0.00,,,0.00,weatherlink.com 1.10,2013-06-17 09:56:00,
2013-06-17 06:11:00,80.6,74.0,30.03,SSE,155,0.0,4.0,81,0.00,,,0.00,weatherlink.com 1.10,2013-06-17 10:11:00,
2013-06-17 06:26:00,80.6,74.0,30.03,SSE,155,0.0,5.0,80,0.00,,,0.00,weatherlink.com 1.10,2013-06-17 10:26:00,
2013-06-17 06:41:00,80.8,74.0,30.04,SSE,155,0.0,0.0,80,0.00,,,0.00,weatherlink.com 1.10,2013-06-17 10:41:00,
2013-06-17 06:56:00,81.0,74.0,30.04,SSW,198,0.0,1.0,80,0.00,,,0.00,weatherlink.com 1.10,2013-06-17 10:56:00,
2013-06-17 07:11:00,81.1,74.0,30.04,SSW,198,0.0,0.0,80,0.00,,,0.00,weatherlink.com 1.10,2013-06-17 11:11:00,
2013-06-17 07:28:00,82.1,75.0,30.05,SSW,198,0.0,0.0,79,0.00,,,0.00,weatherlink.com 1.10,2013-06-17 11:28:00,
2013-06-17 07:41:00,82.7,75.0,30.06,SSW,198,0.0,0.0,77,0.00,,,0.00,weatherlink.com 1.10,2013-06-17 11:41:00,
2013-06-17 07:56:00,83.1,75.0,30.06,SSW,198,0.0,1.0,77,0.00,,,0.00,weatherlink.com 1.10,2013-06-17 11:56:00,
2013-06-17 08:11:00,84.0,75.0,30.06,South,178,0.0,4.0,73,0.00,,,0.00,weatherlink.com 1.10,2013-06-17 12:11:00,
2013-06-17 08:26:00,85.2,74.0,30.06,SSE,154,0.0,2.0,70,0.00,,,0.00,weatherlink.com 1.10,2013-06-17 12:26:00,
2013-06-17 08:41:00,85.6,74.0,30.06,SE,144,6.0,10.0,69,0.00,,,0.00,weatherlink.com 1.10,2013-06-17 12:41:00,
2013-06-17 08:56:00,85.6,73.0,30.06,SE,140,0.0,6.0,67,0.00,,,0.00,weatherlink.com 1.10,2013-06-17 12:56:00,
2013-06-17 09:11:00,85.8,73.0,30.06,ESE,110,4.0,9.0,66,0.00,,,0.00,weatherlink.com 1.10,2013-06-17 13:11:00,
2013-06-17 09:26:00,86.6,73.0,30.07,ESE,104,5.0,10.0,65,0.00,,,0.00,weatherlink.com 1.10,2013-06-17 13:26:00,
2013-06-17 09:42:00,86.4,73.0,30.06,SSE,148,0.0,11.0,65,0.00,,,0.00,weatherlink.com 1.10,2013-06-17 13:42:00,
2013-06-17 09:57:00,85.8,73.0,30.06,SSE,163,3.0,11.0,65,0.00,,,0.00,weatherlink.com 1.10,2013-06-17 13:57:00,
2013-06-17 10:12:00,86.0,73.0,30.06,ESE,123,7.0,10.0,65,0.00,,,0.00,weatherlink.com 1.10,2013-06-17 14:12:00,
2013-06-17 10:27:00,86.2,73.0,30.06,ESE,103,4.0,11.0,64,0.00,,,0.00,weatherlink.com 1.10,2013-06-17 14:27:00,
2013-06-17 10:42:00,87.1,72.0,30.06,ESE,106,9.0,13.0,62,0.00,,,0.00,weatherlink.com 1.10,2013-06-17 14:42:00,
2013-06-17 10:57:00,86.4,73.0,30.06,ENE,63,9.0,13.0,65,0.00,,,0.00,weatherlink.com 1.10,2013-06-17 14:57:00,
2013-06-17 11:13:00,86.6,74.0,30.06,SE,126,4.0,12.0,66,0.00,,,0.00,weatherlink.com 1.10,2013-06-17 15:13:00,
2013-06-17 11:27:00,86.6,73.0,30.06,SE,125,6.0,12.0,65,0.00,,,0.00,weatherlink.com 1.10,2013-06-17 15:27:00,
2013-06-17 11:42:00,86.9,74.0,30.06,SE,142,3.0,10.0,65,0.00,,,0.00,weatherlink.com 1.10,2013-06-17 15:42:00,
2013-06-17 11:57:00,86.9,74.0,30.06,ESE,112,5.0,11.0,66,0.00,,,0.00,weatherlink.com 1.10,2013-06-17 15:57:00,
2013-06-17 12:12:00,87.5,75.0,30.07,ESE,117,5.0,9.0,66,0.00,,,0.00,weatherlink.com 1.10,2013-06-17 16:12:00,
2013-06-17 12:27:00,86.9,73.0,30.07,SSE,162,5.0,11.0,64,0.00,,,0.00,weatherlink.com 1.10,2013-06-17 16:27:00,
2013-06-17 12:42:00,86.2,74.0,30.07,East,94,3.0,14.0,68,0.00,,,0.00,weatherlink.com 1.10,2013-06-17 16:42:00,
2013-06-17 12:57:00,86.4,74.0,30.07,East,90,2.0,15.0,67,0.00,,,0.00,weatherlink.com 1.10,2013-06-17 16:57:00,
2013-06-17 13:12:00,86.2,74.0,30.07,East,83,8.0,13.0,67,0.00,,,0.00,weatherlink.com 1.10,2013-06-17 17:12:00,
2013-06-17 13:27:00,87.3,74.0,30.07,ESE,102,8.0,11.0,64,0.00,,,0.00,weatherlink.com 1.10,2013-06-17 17:27:00,
2013-06-17 13:42:00,87.7,74.0,30.06,South,189,1.0,10.0,63,0.00,,,0.00,weatherlink.com 1.10,2013-06-17 17:42:00,
2013-06-17 13:57:00,87.3,75.0,30.05,East,81,14.0,17.0,66,0.00,,,0.00,weatherlink.com 1.10,2013-06-17 17:57:00,
2013-06-17 14:12:00,86.4,75.0,30.06,East,87,7.0,14.0,68,0.00,,,0.00,weatherlink.com 1.10,2013-06-17 18:12:00,
2013-06-17 14:27:00,86.9,74.0,30.05,SE,137,4.0,14.0,66,0.00,,,0.00,weatherlink.com 1.10,2013-06-17 18:27:00,
2013-06-17 14:42:00,86.6,73.0,30.05,SSE,160,8.0,14.0,65,0.00,,,0.00,weatherlink.com 1.10,2013-06-17 18:42:00,
2013-06-17 14:58:00,86.4,74.0,30.05,East,87,7.0,15.0,66,0.00,,,0.00,weatherlink.com 1.10,2013-06-17 18:58:00,
2013-06-17 15:12:00,87.5,74.0,30.05,SSE,160,6.0,16.0,65,0.00,,,0.00,weatherlink.com 1.10,2013-06-17 19:12:00,
2013-06-17 15:27:00,86.6,73.0,30.05,East,98,7.0,14.0,65,0.00,,,0.00,weatherlink.com 1.10,2013-06-17 19:27:00,
2013-06-17 15:42:00,86.9,74.0,30.05,East,91,9.0,17.0,65,0.00,,,0.00,weatherlink.com 1.10,2013-06-17 19:42:00,
2013-06-17 15:57:00,87.1,73.0,30.05,ESE,107,14.0,14.0,64,0.00,,,0.00,weatherlink.com 1.10,2013-06-17 19:57:00,
2013-06-17 16:12:00,87.1,75.0,30.04,SSE,162,6.0,12.0,67,0.00,,,0.00,weatherlink.com 1.10,2013-06-17 20:12:00,
2013-06-17 16:27:00,87.7,75.0,30.04,SE,136,6.0,11.0,67,0.00,,,0.00,weatherlink.com 1.10,2013-06-17 20:27:00,
2013-06-17 16:42:00,86.4,75.0,30.03,East,84,14.0,15.0,69,0.00,,,0.00,weatherlink.com 1.10,2013-06-17 20:42:00,
2013-06-17 16:57:00,85.8,75.0,30.03,SE,132,0.0,14.0,70,0.00,,,0.00,weatherlink.com 1.10,2013-06-17 20:57:00,
2013-06-17 17:12:00,85.8,75.0,30.03,East,90,9.0,14.0,69,0.00,,,0.00,weatherlink.com 1.10,2013-06-17 21:12:00,
2013-06-17 17:27:00,85.8,75.0,30.03,ESE,104,5.0,15.0,69,0.00,,,0.00,weatherlink.com 1.10,2013-06-17 21:27:00,
2013-06-17 17:42:00,85.6,75.0,30.03,South,185,0.0,11.0,71,0.00,,,0.00,weatherlink.com 1.10,2013-06-17 21:42:00,
2013-06-17 17:57:00,85.2,75.0,30.03,South,176,2.0,12.0,72,0.00,,,0.00,weatherlink.com 1.10,2013-06-17 21:57:00,
2013-06-17 18:12:00,85.2,75.0,30.02,ESE,115,5.0,16.0,71,0.00,,,0.00,weatherlink.com 1.10,2013-06-17 22:12:00,
2013-06-17 18:27:00,85.0,74.0,30.02,SE,139,7.0,15.0,70,0.00,,,0.00,weatherlink.com 1.10,2013-06-17 22:27:00,
2013-06-17 18:42:00,85.2,74.0,30.02,SE,137,0.0,9.0,69,0.00,,,0.00,weatherlink.com 1.10,2013-06-17 22:42:00,
2013-06-17 18:57:00,84.8,74.0,30.02,SE,144,3.0,13.0,71,0.00,,,0.00,weatherlink.com 1.10,2013-06-17 22:57:00,
2013-06-17 19:12:00,84.8,75.0,30.02,ESE,122,0.0,11.0,72,0.00,,,0.00,weatherlink.com 1.10,2013-06-17 23:12:00,
2013-06-17 19:27:00,84.6,74.0,30.03,South,172,10.0,13.0,71,0.00,,,0.00,weatherlink.com 1.10,2013-06-17 23:27:00,
2013-06-17 19:42:00,84.4,74.0,30.02,SSE,154,0.0,10.0,70,0.00,,,0.00,weatherlink.com 1.10,2013-06-17 23:42:00,
2013-06-17 19:57:00,84.2,74.0,30.03,SSE,150,0.0,10.0,72,0.00,,,0.00,weatherlink.com 1.10,2013-06-17 23:57:00,
2013-06-17 20:12:00,83.9,74.0,30.02,SSE,165,1.0,9.0,72,0.00,,,0.00,weatherlink.com 1.10,2013-06-18 00:12:00,
2013-06-17 20:27:00,83.9,75.0,30.03,SE,138,0.0,10.0,74,0.00,,,0.00,weatherlink.com 1.10,2013-06-18 00:27:00,
2013-06-17 20:42:00,83.5,74.0,30.03,SE,136,3.0,11.0,74,0.00,,,0.00,weatherlink.com 1.10,2013-06-18 00:42:00,
2013-06-17 20:57:00,83.5,75.0,30.03,SSE,148,4.0,14.0,75,0.00,,,0.00,weatherlink.com 1.10,2013-06-18 00:57:00,
2013-06-17 21:12:00,83.5,75.0,30.04,SSE,160,2.0,15.0,75,0.00,,,0.00,weatherlink.com 1.10,2013-06-18 01:12:00,
2013-06-17 21:27:00,83.5,75.0,30.04,SE,144,5.0,8.0,75,0.00,,,0.00,weatherlink.com 1.10,2013-06-18 01:27:00,
2013-06-17 21:42:00,83.3,75.0,30.05,SSE,159,0.0,9.0,76,0.00,,,0.00,weatherlink.com 1.10,2013-06-18 01:42:00,
2013-06-17 21:57:00,83.3,75.0,30.05,SSE,161,3.0,8.0,76,0.00,,,0.00,weatherlink.com 1.10,2013-06-18 01:57:00,
2013-06-17 22:12:00,83.3,75.0,30.06,SSE,154,0.0,9.0,77,0.00,,,0.00,weatherlink.com 1.10,2013-06-18 02:12:00,
2013-06-17 22:27:00,83.3,76.0,30.07,SSE,167,0.0,9.0,78,0.00,,,0.00,weatherlink.com 1.10,2013-06-18 02:27:00,
2013-06-17 22:42:00,83.3,76.0,30.07,SSE,158,0.0,8.0,78,0.00,,,0.00,weatherlink.com 1.10,2013-06-18 02:42:00,
2013-06-17 22:57:00,83.3,76.0,30.07,SE,133,3.0,8.0,78,0.00,,,0.00,weatherlink.com 1.10,2013-06-18 02:57:00,
2013-06-17 23:12:00,83.3,76.0,30.07,SSE,162,5.0,6.0,78,0.00,,,0.00,weatherlink.com 1.10,2013-06-18 03:12:00,
2013-06-17 23:27:00,83.1,75.0,30.07,SSE,147,0.0,8.0,77,0.00,,,0.00,weatherlink.com 1.10,2013-06-18 03:27:00,
2013-06-17 23:42:00,83.1,75.0,30.07,SE,135,0.0,6.0,77,0.00,,,0.00,weatherlink.com 1.10,2013-06-18 03:42:00,
2013-06-17 23:57:00,83.1,76.0,30.07,SE,141,3.0,7.0,78,0.00,,,0.00,weatherlink.com 1.10,2013-06-18 03:57:00,